TimeGMT,TemperatureF,Dew PointF,Humidity,Sea Level PressureIn,VisibilityMPH,Wind Direction,Wind SpeedMPH,Gust SpeedMPH,PrecipitationIn,Events,Conditions,WindDirDegrees,DateUTC
12:20 AM,19.4,15.8,86,30.15,-9999.0,WSW,4.6,-,N/A,,Clear,250,2013-03-12 00:20:00
12:50 AM,21.2,15.8,80,30.15,-9999.0,WSW,6.9,-,N/A,,Clear,240,2013-03-12 00:50:00
1:20 AM,23.0,15.8,74,30.15,-9999.0,WSW,5.8,-,N/A,,Clear,250,2013-03-12 01:20:00
1:50 AM,19.4,14.0,80,30.15,-9999.0,SW,6.9,-,N/A,,Clear,230,2013-03-12 01:50:00
2:20 AM,21.2,17.6,86,30.12,-9999.0,WSW,4.6,-,N/A,,Clear,250,2013-03-12 02:20:00
2:50 AM,19.4,15.8,86,30.12,-9999.0,SW,5.8,-,N/A,,Clear,230,2013-03-12 02:50:00
3:20 AM,17.6,14.0,86,30.12,6.2,WSW,4.6,-,N/A,,Unknown,240,2013-03-12 03:20:00
3:50 AM,17.6,14.0,86,30.09,6.2,SW,6.9,-,N/A,,Unknown,230,2013-03-12 03:50:00
4:20 AM,19.4,14.0,80,30.09,6.2,SW,5.8,-,N/A,,Unknown,220,2013-03-12 04:20:00
4:50 AM,21.2,15.8,80,30.09,-9999.0,WSW,5.8,-,N/A,,Clear,250,2013-03-12 04:50:00
5:20 AM,23.0,17.6,80,30.09,-9999.0,SSW,4.6,-,N/A,,Clear,210,2013-03-12 05:20:00
5:50 AM,21.2,15.8,80,30.09,-9999.0,SSW,5.8,-,N/A,,Clear,210,2013-03-12 05:50:00
6:20 AM,21.2,15.8,80,30.06,6.2,SW,5.8,-,N/A,,Partly Cloudy,230,2013-03-12 06:20:00
6:50 AM,19.4,15.8,86,30.06,-9999.0,SW,4.6,-,N/A,,Clear,220,2013-03-12 06:50:00
7:20 AM,23.0,19.4,86,30.06,-9999.0,Variable,3.5,-,N/A,,Clear,0,2013-03-12 07:20:00
7:50 AM,26.6,21.2,80,30.06,6.2,SW,6.9,-,N/A,,Partly Cloudy,230,2013-03-12 07:50:00
8:20 AM,30.2,23.0,75,30.06,6.2,Variable,3.5,-,N/A,,Scattered Clouds,0,2013-03-12 08:20:00
8:50 AM,32.0,24.8,75,30.06,6.2,WSW,3.5,-,N/A,,Scattered Clouds,240,2013-03-12 08:50:00
9:20 AM,35.6,26.6,70,30.04,6.2,WNW,5.8,-,N/A,,Scattered Clouds,290,2013-03-12 09:20:00
9:50 AM,37.4,28.4,70,30.04,6.2,WNW,10.4,-,N/A,,Scattered Clouds,300,2013-03-12 09:50:00
10:20 AM,39.2,26.6,61,30.04,6.2,NW,9.2,-,N/A,,Partly Cloudy,310,2013-03-12 10:20:00
10:50 AM,41.0,26.6,57,30.04,6.2,NW,9.2,-,N/A,,Partly Cloudy,310,2013-03-12 10:50:00
11:20 AM,41.0,24.8,53,30.04,6.2,WNW,9.2,-,N/A,,Scattered Clouds,300,2013-03-12 11:20:00
11:50 AM,42.8,26.6,53,30.01,6.2,West,8.1,-,N/A,,Scattered Clouds,280,2013-03-12 11:50:00
12:20 PM,42.8,26.6,53,30.01,6.2,WNW,10.4,-,N/A,,Scattered Clouds,290,2013-03-12 12:20:00
12:50 PM,44.6,26.6,49,30.01,6.2,WNW,10.4,-,N/A,,Scattered Clouds,300,2013-03-12 12:50:00
1:20 PM,42.8,26.6,53,29.98,6.2,WNW,11.5,-,N/A,,Scattered Clouds,300,2013-03-12 13:20:00
1:50 PM,42.8,26.6,53,29.98,6.2,WNW,12.7,-,N/A,,Partly Cloudy,300,2013-03-12 13:50:00
2:20 PM,44.6,28.4,53,29.98,6.2,WNW,10.4,-,N/A,,Scattered Clouds,300,2013-03-12 14:20:00
2:50 PM,46.4,28.4,50,29.95,6.2,WNW,10.4,-,N/A,,Scattered Clouds,300,2013-03-12 14:50:00
3:20 PM,46.4,28.4,50,29.95,6.2,NW,8.1,-,N/A,,Scattered Clouds,310,2013-03-12 15:20:00
3:50 PM,44.6,30.2,57,29.95,6.2,WNW,8.1,-,N/A,,Scattered Clouds,290,2013-03-12 15:50:00
4:20 PM,42.8,30.2,61,29.92,6.2,WNW,8.1,-,N/A,,Partly Cloudy,300,2013-03-12 16:20:00
4:50 PM,42.8,30.2,61,29.92,6.2,WNW,8.1,-,N/A,,Partly Cloudy,300,2013-03-12 16:50:00
5:20 PM,42.8,30.2,61,29.92,6.2,WNW,8.1,-,N/A,,Partly Cloudy,290,2013-03-12 17:20:00
5:50 PM,42.8,32.0,66,29.92,6.2,WNW,8.1,-,N/A,,Scattered Clouds,290,2013-03-12 17:50:00
6:20 PM,41.0,32.0,70,29.92,6.2,WNW,5.8,-,N/A,,Scattered Clouds,300,2013-03-12 18:20:00
6:50 PM,39.2,30.2,70,29.92,6.2,Variable,3.5,-,N/A,,Scattered Clouds,0,2013-03-12 18:50:00
7:20 PM,35.6,28.4,75,29.92,6.2,NNE,5.8,-,N/A,,Scattered Clouds,20,2013-03-12 19:20:00
7:50 PM,37.4,28.4,70,29.92,6.2,North,5.8,-,N/A,,Partly Cloudy,360,2013-03-12 19:50:00
8:20 PM,37.4,28.4,70,29.92,6.2,North,8.1,-,N/A,,Partly Cloudy,10,2013-03-12 20:20:00
8:50 PM,37.4,28.4,70,29.95,6.2,North,5.8,-,N/A,,Partly Cloudy,360,2013-03-12 20:50:00
9:20 PM,37.4,28.4,70,29.95,6.2,North,5.8,-,N/A,,Scattered Clouds,10,2013-03-12 21:20:00
9:50 PM,37.4,28.4,70,29.95,6.2,Variable,3.5,-,N/A,,Scattered Clouds,0,2013-03-12 21:50:00
10:20 PM,33.8,26.6,75,29.95,6.2,Variable,2.3,-,N/A,,Scattered Clouds,0,2013-03-12 22:20:00
10:50 PM,30.2,24.8,80,29.95,6.2,West,4.6,-,N/A,,Partly Cloudy,270,2013-03-12 22:50:00
11:20 PM,32.0,26.6,80,29.95,-9999.0,NW,2.3,-,N/A,,Clear,310,2013-03-12 23:20:00
11:50 PM,30.2,26.6,86,29.92,-9999.0,WSW,4.6,-,N/A,,Clear,240,2013-03-12 23:50:00